• In Deutschland
  • Länderverzeichnis
  • Für 7 Tage
  • Wassertemperatur
  • Satellitenkarten
  • Wetterkarte
  • Widgets
  • user-avatar
    Anmelden

    Stündliche Wetter Hennigsdorf

    Heute, 16 Juli, Montag

    Zeit Temperatur Niederschläge Wind Luftdruck Luftfeuchtigkeit
    00:00 +17°C° 0 mm 2 m/S 758 mmHg 86%
    01:00 +17°C° 0 mm 2 m/S 758 mmHg 89%
    02:00 +16°C° 0 mm 1 m/S 758 mmHg 90%
    03:00 +16°C° 0 mm 1 m/S 758 mmHg 90%
    04:00 +15°C° 0 mm 1 m/S 758 mmHg 91%
    05:00 +18°C° 0 mm 1 m/S 757 mmHg 85%
    06:00 +19°C° 0 mm 1 m/S 757 mmHg 79%
    07:00 +21°C° 0 mm 1 m/S 757 mmHg 73%
    08:00 +22°C° 0 mm 1 m/S 757 mmHg 66%
    09:00 +24°C° 0 mm 1 m/S 757 mmHg 58%
    10:00 +26°C° 0 mm 1 m/S 757 mmHg 51%
    11:00 +27°C° 0 mm 1 m/S 756 mmHg 47%
    12:00 +28°C° 0 mm 2 m/S 756 mmHg 44%
    13:00 +29°C° 0 mm 2 m/S 756 mmHg 40%
    14:00 +29°C° 0 mm 2 m/S 755 mmHg 39%
    15:00 +29°C° 0 mm 2 m/S 755 mmHg 38%
    16:00 +29°C° 0 mm 2 m/S 755 mmHg 38%
    17:00 +28°C° 0 mm 2 m/S 755 mmHg 43%
    18:00 +27°C° 0 mm 2 m/S 755 mmHg 48%
    19:00 +26°C° 0 mm 2 m/S 755 mmHg 54%
    20:00 +25°C° 0 mm 2 m/S 755 mmHg 60%
    21:00 +23°C° 0 mm 2 m/S 755 mmHg 65%
    22:00 +20°C° 0 mm 2 m/S 755 mmHg 71%
    23:00 +20°C° 0 mm 2 m/S 755 mmHg 74%

    Morgen, 17 Juli, Dienstag

    Zeit Temperatur Niederschläge Wind Luftdruck Luftfeuchtigkeit
    00:00 +19°C° 0 mm 2 m/S 755 mmHg 76%
    01:00 +19°C° 0 mm 1 m/S 755 mmHg 78%
    02:00 +18°C° 0 mm 2 m/S 755 mmHg 79%
    03:00 +17°C° 0 mm 2 m/S 755 mmHg 80%
    04:00 +17°C° 0 mm 2 m/S 755 mmHg 81%
    05:00 +18°C° 0 mm 2 m/S 755 mmHg 77%
    06:00 +19°C° 0 mm 2 m/S 755 mmHg 73%
    07:00 +20°C° 0 mm 2 m/S 755 mmHg 68%
    08:00 +23°C° 0 mm 2 m/S 755 mmHg 62%
    09:00 +25°C° 0 mm 2 m/S 755 mmHg 56%
    10:00 +26°C° 0 mm 3 m/S 755 mmHg 49%
    11:00 +27°C° 0 mm 3 m/S 755 mmHg 47%
    12:00 +28°C° 0 mm 3 m/S 754 mmHg 44%
    13:00 +29°C° 0 mm 3 m/S 754 mmHg 42%
    14:00 +29°C° 0 mm 4 m/S 754 mmHg 43%
    15:00 +28°C° 0 mm 4 m/S 754 mmHg 45%
    16:00 +28°C° 0 mm 4 m/S 754 mmHg 46%
    17:00 +27°C° 0 mm 3 m/S 754 mmHg 52%
    18:00 +26°C° 0 mm 3 m/S 754 mmHg 58%
    19:00 +25°C° 0 mm 3 m/S 754 mmHg 64%
    20:00 +23°C° 0 mm 2 m/S 755 mmHg 70%
    21:00 +21°C° 0 mm 2 m/S 755 mmHg 76%
    22:00 +20°C° 0 mm 1 m/S 755 mmHg 82%
    23:00 +20°C° 0 mm 1 m/S 755 mmHg 83%

    übermorgen, 18 Juli, Mittwoch

    Zeit Temperatur Niederschläge Wind Luftdruck Luftfeuchtigkeit
    00:00 +19°C° 0 mm 1 m/S 755 mmHg 85%
    01:00 +19°C° 0 mm 1 m/S 755 mmHg 86%
    02:00 +19°C° 0 mm 1 m/S 755 mmHg 86%
    03:00 +17°C° 0 mm 2 m/S 755 mmHg 87%
    04:00 +17°C° 0 mm 2 m/S 755 mmHg 87%
    05:00 +19°C° 0 mm 2 m/S 755 mmHg 81%
    06:00 +20°C° 0 mm 2 m/S 755 mmHg 76%
    07:00 +21°C° 0 mm 2 m/S 755 mmHg 70%
    08:00 +24°C° 0 mm 3 m/S 755 mmHg 62%
    09:00 +26°C° 0 mm 3 m/S 756 mmHg 55%
    10:00 +28°C° 0 mm 4 m/S 756 mmHg 47%
    11:00 +28°C° 0 mm 4 m/S 756 mmHg 45%
    12:00 +29°C° 0 mm 4 m/S 756 mmHg 42%
    13:00 +30°C° 0 mm 4 m/S 756 mmHg 39%
    14:00 +30°C° 0 mm 4 m/S 756 mmHg 40%
    15:00 +29°C° 0 mm 4 m/S 756 mmHg 42%
    16:00 +29°C° 0 mm 4 m/S 756 mmHg 43%
    17:00 +28°C° 0 mm 4 m/S 756 mmHg 46%
    18:00 +27°C° 0 mm 3 m/S 756 mmHg 50%
    19:00 +26°C° 0 mm 3 m/S 756 mmHg 54%
    20:00 +25°C° 0 mm 3 m/S 756 mmHg 59%
    21:00 +22°C° 0 mm 3 m/S 757 mmHg 64%
    22:00 +21°C° 0 mm 3 m/S 757 mmHg 69%
    23:00 +20°C° 0 mm 3 m/S 757 mmHg 72%

    19 Juli, Donnerstag

    Zeit Temperatur Niederschläge Wind Luftdruck Luftfeuchtigkeit
    00:00 +19°C° 0 mm 3 m/S 758 mmHg 75%
    01:00 +18°C° 0 mm 3 m/S 758 mmHg 78%
    02:00 +17°C° 0 mm 3 m/S 758 mmHg 80%
    03:00 +17°C° 0 mm 3 m/S 758 mmHg 83%
    04:00 +16°C° 0 mm 2 m/S 758 mmHg 86%
    05:00 +17°C° 0 mm 3 m/S 758 mmHg 82%
    06:00 +17°C° 0 mm 3 m/S 758 mmHg 79%
    07:00 +18°C° 0 mm 3 m/S 759 mmHg 75%
    08:00 +20°C° 0 mm 3 m/S 759 mmHg 66%
    09:00 +22°C° 0 mm 3 m/S 759 mmHg 58%
    10:00 +24°C° 0 mm 3 m/S 759 mmHg 49%
    11:00 +26°C° 0 mm 3 m/S 759 mmHg 45%
    12:00 +27°C° 0 mm 3 m/S 758 mmHg 40%
    13:00 +28°C° 0 mm 3 m/S 758 mmHg 35%
    14:00 +28°C° 0 mm 3 m/S 758 mmHg 35%
    15:00 +28°C° 0 mm 3 m/S 758 mmHg 35%
    16:00 +28°C° 0 mm 3 m/S 758 mmHg 35%
    17:00 +27°C° 0 mm 3 m/S 758 mmHg 40%
    18:00 +26°C° 0 mm 2 m/S 758 mmHg 45%
    19:00 +25°C° 0 mm 2 m/S 758 mmHg 50%
    20:00 +23°C° 0 mm 2 m/S 758 mmHg 56%
    21:00 +20°C° 0 mm 2 m/S 758 mmHg 61%
    22:00 +19°C° 0 mm 2 m/S 758 mmHg 66%
    23:00 +18°C° 0 mm 2 m/S 758 mmHg 68%

    20 Juli, Freitag

    Zeit Temperatur Niederschläge Wind Luftdruck Luftfeuchtigkeit
    00:00 +17°C° 0 mm 2 m/S 758 mmHg 70%
    01:00 +18°C° 0 mm 1 m/S 758 mmHg 72%
    02:00 +16°C° 0 mm 1 m/S 758 mmHg 73%
    03:00 +16°C° 0 mm 1 m/S 758 mmHg 74%
    04:00 +16°C° 0 mm 1 m/S 758 mmHg 75%
    05:00 +18°C° 0 mm 1 m/S 758 mmHg 70%
    06:00 +20°C° 0 mm 1 m/S 757 mmHg 65%
    07:00 +21°C° 0 mm 1 m/S 757 mmHg 60%
    08:00 +23°C° 0 mm 1 m/S 757 mmHg 55%
    09:00 +25°C° 0 mm 2 m/S 757 mmHg 49%
    10:00 +26°C° 0 mm 2 m/S 757 mmHg 44%
    11:00 +27°C° 0 mm 2 m/S 757 mmHg 41%
    12:00 +28°C° 0 mm 2 m/S 756 mmHg 39%
    13:00 +29°C° 0 mm 2 m/S 756 mmHg 36%
    14:00 +29°C° 0 mm 1 m/S 756 mmHg 36%
    15:00 +29°C° 0 mm 1 m/S 756 mmHg 36%
    16:00 +29°C° 0 mm 1 m/S 755 mmHg 37%
    17:00 +28°C° 0 mm 1 m/S 755 mmHg 41%
    18:00 +27°C° 0 mm 2 m/S 755 mmHg 46%
    19:00 +26°C° 0 mm 2 m/S 754 mmHg 50%
    20:00 +25°C° 0 mm 2 m/S 754 mmHg 52%
    21:00 +24°C° 0 mm 3 m/S 754 mmHg 54%
    22:00 +22°C° 0 mm 3 m/S 755 mmHg 56%
    23:00 +21°C° 0,1 mm 3 m/S 754 mmHg 58%

    21 Juli, Samstag

    Zeit Temperatur Niederschläge Wind Luftdruck Luftfeuchtigkeit
    00:00 +21°C° 0,1 mm 4 m/S 754 mmHg 60%
    01:00 +21°C° 0,1 mm 4 m/S 754 mmHg 62%
    02:00 +20°C° 0,1 mm 4 m/S 754 mmHg 63%
    03:00 +20°C° 0,1 mm 4 m/S 753 mmHg 65%
    04:00 +20°C° 0,1 mm 4 m/S 753 mmHg 66%
    05:00 +20°C° 0,2 mm 4 m/S 753 mmHg 66%
    06:00 +20°C° 0,2 mm 4 m/S 753 mmHg 67%
    07:00 +21°C° 0,2 mm 4 m/S 753 mmHg 67%
    08:00 +22°C° 0,4 mm 4 m/S 753 mmHg 64%
    09:00 +23°C° 0,4 mm 4 m/S 753 mmHg 61%
    10:00 +25°C° 0,4 mm 5 m/S 753 mmHg 58%
    11:00 +26°C° 0,2 mm 4 m/S 752 mmHg 57%
    12:00 +26°C° 0,2 mm 4 m/S 752 mmHg 56%
    13:00 +27°C° 0,2 mm 4 m/S 752 mmHg 55%
    14:00 +27°C° 0,1 mm 4 m/S 752 mmHg 54%
    15:00 +27°C° 0,1 mm 3 m/S 752 mmHg 54%
    16:00 +27°C° 0,1 mm 3 m/S 752 mmHg 54%
    17:00 +26°C° 0 mm 2 m/S 752 mmHg 57%
    18:00 +26°C° 0 mm 2 m/S 752 mmHg 60%
    19:00 +25°C° 0 mm 1 m/S 752 mmHg 63%
    20:00 +24°C° 0,2 mm 2 m/S 752 mmHg 65%
    21:00 +24°C° 0,2 mm 2 m/S 752 mmHg 67%
    22:00 +23°C° 0,2 mm 2 m/S 752 mmHg 69%
    23:00 +21°C° 0,1 mm 2 m/S 752 mmHg 71%
    Mehr zeigen